Houston Hull, TX

7:38 AM CST on December 15, 2019 (GMT -0600)
Sugar Land Municipal-Hull

Weather History for KSGR - October, 2019

Change the Weather History Date:

Thursday, October 3, 2019

  Actual Average Record
Temperature  
Mean Temperature 83 °F -  
Max Temperature 93 °F 87 °F 98 °F (1952)
Min Temperature 73 °F 63 °F 47 °F (1961)
Cooling Degree Days 18    
Growing Degree Days 33 (Base 50)    
Moisture  
Dew Point 74 °F    
Average Humidity 79    
Maximum Humidity 100    
Minimum Humidity 47    
Precipitation  
Precipitation 0.10 in - - ()
Sea Level Pressure  
Sea Level Pressure 29.99 in    
Wind  
Wind Speed 5 mph (ENE)    
Max Wind Speed 16 mph    
Max Gust Speed 28 mph    
Visibility 10 miles    
Events Rain , Thunderstorm    
Averages and records for this station are not official NWS values.
T = Trace of Precipitation, MM = Missing Value Source: NWS Daily Summary

Daily Weather History Graph

Daily Weather History Graph

Search for Another Location

Airport or City:

Astronomy

Oct. 03, 2019 Rise Set
Actual Time 7:16 AM CDT 7:05 PM CDT
Civil Twilight 6:53 AM CDT 7:29 PM CDT
Nautical Twilight 6:25 AM CDT 7:57 PM CDT
Astronomical Twilight 5:57 AM CDT 8:25 PM CDT
Moon 12:27 PM CDT (10/3) 11:08 PM CDT (10/3)
Length of Visible Light 12h 36m
Length of Day
11h 49m
Waxing Crescent, 30% of the Moon is Illuminated
Oct 3
Waxing Crescent
Oct 5
First Quarter
Oct 13
Full
Oct 21
Last Quarter
Oct 27
New

Hourly Weather History & Observations

Time (CDT) Temp. Heat Index Dew Point Humidity Pressure Visibility Wind Dir Wind Speed Gust Speed Precip Events Conditions
12:53 AM 77.0 °F - 75.0 °F 94% 29.97 in 10.0 mi ESE 3.5 mph - N/A   Clear
1:53 AM 75.0 °F - 73.9 °F 96% 29.97 in 10.0 mi Calm Calm - N/A   Clear
2:53 AM 75.0 °F - 75.0 °F 100% 29.97 in 10.0 mi Calm Calm - N/A   Clear
3:53 AM 73.9 °F - 73.9 °F 100% 29.97 in 10.0 mi North 3.5 mph - N/A   Clear
4:53 AM 73.9 °F - 73.0 °F 97% 29.98 in 9.0 mi North 3.5 mph - N/A   Clear
5:53 AM 75.9 °F - 75.0 °F 97% 29.99 in 10.0 mi ENE 3.5 mph - N/A   Clear
6:53 AM 75.9 °F - 75.0 °F 97% 30.00 in 10.0 mi Calm Calm - N/A   Clear
7:53 AM 75.9 °F - 75.0 °F 97% 30.01 in 9.0 mi North 3.5 mph - N/A   Clear
8:53 AM 82.0 °F 91.0 °F 78.1 °F 88% 30.02 in 10.0 mi NNE 3.5 mph - N/A   Clear
9:53 AM 84.0 °F 92.6 °F 75.9 °F 76% 30.04 in 10.0 mi East 6.9 mph - N/A   Scattered Clouds
10:53 AM 87.1 °F 96.3 °F 75.0 °F 67% 30.04 in 10.0 mi ENE 8.1 mph - N/A   Partly Cloudy
11:53 AM 89.1 °F 98.0 °F 73.9 °F 61% 30.04 in 10.0 mi East 6.9 mph - N/A   Clear
12:53 PM 90.0 °F 97.9 °F 73.0 °F 57% 30.02 in 10.0 mi ESE 8.1 mph - N/A   Scattered Clouds
1:53 PM 91.9 °F 98.4 °F 71.1 °F 50% 30.00 in 10.0 mi ESE 10.4 mph - N/A   Clear
2:53 PM 93.0 °F 99.0 °F 70.0 °F 47% 29.97 in 10.0 mi East 12.7 mph - N/A   Clear
3:04 PM 93.0 °F 99.0 °F 70.0 °F 47% 29.97 in 10.0 mi East 8.1 mph - N/A   Clear
3:53 PM 89.1 °F 96.0 °F 72.0 °F 57% 29.95 in 10.0 mi East 16.1 mph 20.7 mph 0.00 in Rain Light Rain
4:05 PM 86.0 °F 92.2 °F 72.0 °F 63% 29.95 in 6.0 mi SE 4.6 mph - 0.03 in Rain , Thunderstorm Light Rain
4:38 PM 80.1 °F 84.5 °F 73.9 °F 81% 29.96 in 4.0 mi NNE 13.8 mph 27.6 mph 0.09 in Rain , Thunderstorm Heavy Rain
4:49 PM 78.8 °F - 73.4 °F 83% 29.95 in 10.0 mi NNW 6.9 mph - 0.10 in Rain Light Rain
4:53 PM 79.0 °F - 73.9 °F 84% 29.95 in 10.0 mi NNW 4.6 mph - 0.10 in Rain Light Rain
5:09 PM 79.0 °F - 77.0 °F 94% 29.95 in 9.0 mi Calm Calm - 0.00 in Thunderstorm Partly Cloudy
5:44 PM 82.9 °F 89.4 °F 73.9 °F 74% 29.96 in 10.0 mi NE 11.5 mph - 0.00 in   Mostly Cloudy
5:53 PM 82.0 °F 86.7 °F 72.0 °F 71% 29.96 in 10.0 mi NE 9.2 mph - 0.00 in   Mostly Cloudy
6:53 PM 80.1 °F 84.5 °F 73.9 °F 81% 29.98 in 10.0 mi NNE 4.6 mph - N/A   Clear
7:53 PM 81.0 °F 85.8 °F 73.0 °F 77% 30.00 in 10.0 mi NE 5.8 mph - 0.00 in   Partly Cloudy
8:53 PM 79.0 °F - 73.0 °F 82% 30.01 in 10.0 mi ESE 4.6 mph - N/A   Clear
9:53 PM 81.0 °F 85.8 °F 73.0 °F 77% 30.02 in 10.0 mi ESE 6.9 mph - N/A   Clear
10:53 PM 78.1 °F - 73.9 °F 87% 30.04 in 10.0 mi East 4.6 mph - N/A   Clear
11:53 PM 77.0 °F - 73.9 °F 90% 30.04 in 10.0 mi ENE 3.5 mph - N/A   Clear